Retour au catalogue

STARLINK-37856

ActifCommunicationsSSO
NORAD 69491·PAYLOAD·🇺🇸 United States

Lancé Jun 11, 2026 depuis Vandenberg Space Force Base

Loading…

Prochains Passages (prochaines 24 heures)

TLE

FraisSource: CelesTrak SupGP

Époque: Sep 14, 2026, 23:20 UTC

1 69491C 26131P   26257.97270833  .00047379  00000+0  14709-2 0  2572
2 69491  97.2837 278.9362 0001203  89.2540 200.2502 15.33413134    18

Suivez STARLINK-37856 en temps réel avec AllMySat

Download on the App Store